Tracking 34408 objects as of 14-Jun-2026
HD Live streaming from Space Station
objects crossing your sky now

THORAD AGENA D DEB

Track THORAD AGENA D DEB now!
10-day predictions


NORAD ID: 5958
Int'l Code: 1970-025MP
Perigee: 987.7 km
Apogee: 1,064.7 km
Inclination: 99.5 °
Period: 105.5 minutes
Semi major axis: 7397 km
RCS: 0.0442 m2 (small)
Launch date: April 8, 1970
Source: United States (US)
Launch site: AIR FORCE WESTERN TEST RANGE (AFWTR)

Note: This is SATELLITE DEBRIS
Your satellite tracking list
Your tracking list is empty




NASA's NSSDC Master Catalog

Two Line Element Set (TLE):
1 05958U 70025MP  26164.69766587  .00000496  00000-0  66509-3 0  9992
2 05958  99.4943  70.7504 0052054 116.7396 300.3245 13.64587798774732
Source of the keplerian elements: AFSPC